1499212800.28,51772,15.88,74222.5,-0.49,-1.09,-1.21,0,*61
1499212801.52,51773,15.81,74216.5,-0.49,-1.09,-1.01,0,*62
1499212802.75,51774,15.81,74220.0,-0.49,-1.09,-0.97,0,*5B
1499212804.01,51775,15.88,74224.8,-0.47,-1.09,-1.05,0,*6E
1499212805.27,51776,15.81,74226.5,-0.47,-0.97,-1.05,0,*5B
1499212806.52,51777,15.81,74224.5,-0.47,-0.93,-0.85,0,*67
1499212807.75,51778,15.88,74230.0,-0.47,-0.81,-0.85,0,*6B
1499212809.0,51779,15.88,74230.0,-0.47,-0.97,-0.97,0,*6E
1499212810.25,51780,15.81,74228.0,-0.47,-0.93,-0.93,0,*68
1499212811.48,51781,15.88,74226.3,-0.47,-0.85,-0.81,0,*6D
1499212812.73,51782,15.81,74224.5,-0.47,-0.85,-0.93,0,*6D
1499212813.95,51783,15.81,74224.3,-0.45,-0.93,-0.93,0,*69
1499212815.18,51784,15.88,74226.5,-0.45,-1.09,-1.09,0,*6E
1499212816.44,51785,15.81,74220.5,-0.47,-1.09,-1.09,0,*6D
1499212817.68,51786,15.81,74224.3,-0.45,-1.05,-1.09,0,*60
1499212818.92,51787,15.81,74222.0,-0.47,-1.09,-1.17,0,*60
1499212820.15,51788,15.88,74224.8,-0.45,-1.09,-1.05,0,*6E
1499212821.35,51789,15.81,74222.0,-0.45,-1.21,-1.17,0,*66
1499212822.54,51790,15.81,74222.8,-0.45,-1.17,-1.17,0,*6B
1499212823.76,51791,15.88,74222.5,-0.45,-1.17,-1.09,0,*65
1499212825.0,51792,15.81,74218.0,-0.45,-1.09,-1.05,0,*65
1499212826.25,51793,15.81,74216.8,-0.45,-1.05,-1.05,0,*68
1499212827.48,51794,15.81,74220.0,-0.45,-1.09,-1.09,0,*6F
1499212828.7,51795,15.88,74222.8,-0.47,-1.21,-1.21,0,*6C
1499212829.9,51796,15.81,74220.8,-0.45,-1.21,-1.21,0,*6D
1499212831.14,51797,15.81,74220.0,-0.47,-1.17,-1.09,0,*61
1499212832.38,51798,15.81,74222.8,-0.45,-1.09,-1.05,0,*6F
1499212833.62,51799,15.81,74220.8,-0.45,-1.05,-1.05,0,*62
1499212834.86,51800,15.81,74220.5,-0.45,-1.09,-1.09,0,*6D
1499212836.09,51801,15.81,74220.0,-0.45,-1.09,-1.09,0,*6C
1499212837.29,51802,15.81,74218.0,-0.45,-1.21,-1.21,0,*6F
1499212838.48,51803,15.88,74222.3,-0.45,-1.21,-1.21,0,*6E
1499212839.68,51804,15.81,74220.8,-0.45,-1.21,-1.21,0,*69
1499212840.88,51805,15.81,74220.8,-0.45,-1.21,-1.21,0,*68
1499212842.07,51806,15.81,74222.8,-0.45,-1.21,-1.17,0,*6E
1499212843.25,51807,15.88,74230.5,-0.45,-1.25,-1.25,0,*6A
1499212844.45,51808,15.81,74222.0,-0.45,-1.21,-1.21,0,*65
1499212845.67,51809,15.81,74226.3,-0.47,-1.33,-1.33,0,*66
1499212846.88,51810,15.81,74222.3,-0.47,-1.33,-1.25,0,*69
1499212848.07,51811,15.81,74224.0,-0.45,-1.33,-1.33,0,*6D
1499212849.28,51812,15.81,74226.8,-0.47,-1.25,-1.25,0,*6C
1499212850.51,51813,15.81,74222.3,-0.47,-1.43,-1.33,0,*6A
1499212851.73,51814,15.81,74226.3,-0.47,-1.33,-1.33,0,*6A
1499212852.91,51815,15.81,74222.8,-0.45,-1.25,-1.33,0,*6E
1499212854.18,51816,15.81,74226.0,-0.47,-1.35,-1.43,0,*69
1499212855.42,51817,15.81,74228.0,-0.45,-1.43,-1.35,0,*6A
1499212856.68,51818,15.81,74228.0,-0.47,-1.35,-1.43,0,*67
1499212857.9,51819,15.81,74230.3,-0.47,-1.25,-1.33,0,*60
1499212859.11,51820,15.81,74226.3,-0.47,-1.33,-1.33,0,*6D
1499212860.32,51821,15.81,74228.8,-0.47,-1.33,-1.33,0,*6C
1499212861.53,51822,15.81,74226.5,-0.47,-1.25,-1.25,0,*6F
1499212862.72,51823,15.81,74226.0,-0.45,-1.25,-1.21,0,*68
1499212863.94,51824,15.81,74228.8,-0.47,-1.21,-1.21,0,*69
1499212865.16,51825,15.81,74224.3,-0.47,-1.21,-1.17,0,*6D
1499212866.43,51826,15.81,74226.5,-0.47,-1.05,-1.05,0,*6B
1499212867.66,51827,15.81,74228.0,-0.45,-0.97,-0.97,0,*68
1499212868.9,51828,15.81,74226.3,-0.47,-0.93,-0.93,0,*65
1499212870.15,51829,15.81,74224.8,-0.47,-0.93,-0.93,0,*64
1499212871.41,51830,15.81,74220.3,-0.47,-1.05,-1.09,0,*60
1499212872.63,51831,15.81,74220.5,-0.47,-1.21,-1.21,0,*6D
1499212873.85,51832,15.81,74222.0,-0.47,-1.21,-1.21,0,*6E
1499212875.05,51833,15.81,74220.3,-0.45,-1.21,-1.21,0,*6D
1499212876.26,51834,15.81,74220.8,-0.47,-1.25,-1.25,0,*68
1499212877.47,51835,15.81,74222.3,-0.47,-1.25,-1.25,0,*69
1499212878.69,51836,15.81,74224.0,-0.47,-1.21,-1.21,0,*6A
1499212879.91,51837,15.81,74224.8,-0.47,-1.21,-1.21,0,*6B
1499212881.13,51838,15.81,74226.0,-0.47,-1.21,-1.21,0,*64
1499212882.35,51839,15.81,74222.5,-0.47,-1.17,-1.17,0,*65
1499212883.59,51840,15.81,74222.0,-0.47,-1.17,-1.09,0,*64
1499212884.78,51841,15.81,74216.5,-0.45,-1.21,-1.21,0,*68
1499212886.0,51842,15.81,74220.3,-0.47,-1.17,-1.21,0,*6C
1499212887.22,51843,15.81,74216.3,-0.47,-1.21,-1.17,0,*6D
1499212888.42,51844,15.81,74218.8,-0.45,-1.17,-1.21,0,*68
1499212889.66,51845,15.81,74216.0,-0.45,-0.97,-1.05,0,*56
1499212890.9,51846,15.81,74214.0,-0.45,-1.09,-1.05,0,*63
1499212892.14,51847,15.81,74214.8,-0.45,-1.09,-1.05,0,*62
1499212893.38,51848,15.81,74216.0,-0.43,-0.89,-0.93,0,*6C
1499212894.61,51849,15.81,74216.0,-0.45,-0.97,-0.97,0,*60
1499212895.83,51850,15.81,74216.3,-0.45,-1.09,-1.17,0,*67
1499212897.06,51851,15.81,74218.0,-0.45,-1.09,-1.09,0,*69
1499212898.3,51852,15.81,74214.8,-0.45,-1.09,-1.05,0,*66
1499212899.54,51853,15.81,74214.3,-0.45,-1.05,-0.97,0,*51
1499212900.75,51854,15.81,74218.8,-0.45,-1.09,-1.17,0,*63
1499212902.01,51855,15.81,74216.0,-0.43,-1.13,-1.13,0,*6B
1499212903.27,51856,15.81,74222.0,-0.43,-1.05,-1.13,0,*6F
1499212904.53,51857,15.88,74224.5,-0.39,-1.01,-1.13,0,*67
1499212905.8,51858,15.81,74220.5,-0.43,-1.13,-1.05,0,*61
1499212907.05,51859,15.81,74218.3,-0.39,-1.01,-0.97,0,*54
1499212908.32,51860,15.81,74218.5,-0.43,-1.05,-1.05,0,*6D
1499212909.58,51861,15.81,74220.0,-0.43,-1.01,-1.01,0,*6C
1499212910.85,51862,15.81,74220.0,-0.43,-1.05,-1.01,0,*6B
1499212912.11,51863,15.81,74220.8,-0.39,-0.97,-1.01,0,*5D
1499212913.38,51864,15.81,74220.3,-0.43,-1.05,-1.01,0,*6D
1499212914.64,51865,15.81,74222.3,-0.43,-1.13,-1.05,0,*6F
1499212915.9,51866,15.81,74220.0,-0.39,-1.09,-1.09,0,*66
1499212917.12,51867,15.81,74220.3,-0.43,-1.17,-1.17,0,*6A
1499212918.36,51868,15.81,74216.3,-0.39,-1.13,-1.17,0,*6C
1499212919.6,51869,15.81,74214.0,-0.39,-1.13,-1.17,0,*6D
1499212920.86,51870,15.81,74214.5,-0.39,-1.13,-1.13,0,*61
1499212922.1,51871,15.81,74218.0,-0.39,-1.13,-1.17,0,*64
1499212923.32,51872,15.81,74214.5,-0.39,-1.17,-1.17,0,*63
1499212924.56,51873,15.81,74212.3,-0.43,-1.13,-1.17,0,*6B
1499212925.83,51874,15.81,74216.3,-0.39,-1.01,-1.09,0,*6D
1499212927.08,51875,15.81,74216.3,-0.39,-0.89,-0.89,0,*64
1499212928.33,51876,15.81,74220.0,-0.39,-0.85,-0.89,0,*6B
1499212929.59,51877,15.81,74226.3,-0.39,-0.97,-0.89,0,*69
1499212930.8,51878,15.81,74222.8,-0.39,-0.73,-0.77,0,*6D
1499212932.01,51879,15.81,74218.5,-0.39,-0.77,-0.77,0,*68
1499212933.22,51880,15.81,74218.3,-0.39,-0.77,-0.77,0,*6E
1499212934.43,51881,15.81,74212.8,-0.37,-0.85,-0.77,0,*6C
1499212935.68,51882,15.88,74210.8,-0.35,-0.85,-0.85,0,*60
1499212936.93,51883,15.81,74204.8,-0.35,-0.85,-0.93,0,*66
1499212938.16,51884,15.81,74204.0,-0.37,-1.09,-0.97,0,*52
1499212939.41,51885,15.81,74206.0,-0.35,-0.93,-0.97,0,*63
1499212940.64,51886,15.81,74208.0,-0.35,-0.85,-0.73,0,*6D
1499212941.85,51887,15.81,74212.3,-0.35,-0.69,-0.69,0,*65
1499212943.06,51888,15.81,74214.0,-0.37,-0.85,-0.77,0,*65
1499212944.24,51889,15.81,74214.8,-0.37,-0.81,-0.81,0,*69
1499212945.5,51890,15.81,74218.5,-0.35,-0.85,-0.85,0,*63
1499212946.75,51891,15.81,74218.3,-0.35,-0.97,-0.85,0,*61
1499212947.98,51892,15.81,74220.3,-0.37,-1.09,-1.09,0,*63
1499212949.26,51893,15.81,74220.3,-0.35,-1.05,-1.05,0,*60
1499212950.52,51894,15.88,74222.8,-0.35,-1.09,-1.05,0,*6B
1499212951.78,51895,15.88,74220.3,-0.35,-1.09,-1.09,0,*66
1499212953.04,51896,15.81,74220.5,-0.35,-1.13,-1.09,0,*6E
1499212954.32,51897,15.81,74222.3,-0.35,-1.05,-1.05,0,*64
1499212955.58,51898,15.81,74226.5,-0.35,-1.09,-1.09,0,*6B
1499212956.84,51899,15.81,74220.0,-0.35,-1.09,-1.09,0,*6A
1499212958.02,51900,15.81,74224.0,-0.37,-1.25,-1.25,0,*69
1499212959.25,51901,15.81,74222.5,-0.35,-1.21,-1.21,0,*6A
1499212960.47,51902,15.81,74222.0,-0.35,-1.21,-1.21,0,*69
1499212961.73,51903,15.81,74216.5,-0.35,-1.13,-1.13,0,*68
1499212962.93,51904,15.81,74214.5,-0.37,-1.17,-1.17,0,*6D
1499212964.19,51905,15.81,74214.3,-0.35,-1.13,-1.13,0,*6E
1499212965.45,51906,15.81,74218.3,-0.35,-1.13,-1.13,0,*6D
1499212966.64,51907,15.81,74216.3,-0.37,-1.17,-1.17,0,*6E
1499212967.87,51908,15.81,74216.8,-0.35,-1.21,-1.21,0,*63
1499212969.06,51909,15.81,74214.3,-0.37,-1.21,-1.21,0,*60
1499212970.25,51910,15.81,74210.8,-0.37,-1.25,-1.17,0,*69
1499212971.5,51911,15.81,74212.0,-0.35,-1.13,-1.21,0,*6A
1499212972.76,51912,15.81,74208.3,-0.35,-1.13,-1.13,0,*68
1499212974.0,51913,15.81,74206.0,-0.37,-1.05,-1.13,0,*6C
1499212975.23,51914,15.81,74208.8,-0.37,-1.13,-1.13,0,*6C
1499212976.49,51915,15.81,74214.0,-0.35,-1.09,-1.09,0,*6F
1499212977.75,51916,15.81,74208.0,-0.35,-1.09,-0.97,0,*5A
1499212979.0,51917,15.81,74208.5,-0.35,-0.93,-1.01,0,*57
1499212980.26,51918,15.81,74214.8,-0.35,-1.09,-0.97,0,*54
1499212981.49,51919,15.81,74210.8,-0.37,-1.09,-1.13,0,*6A
1499212982.75,51920,15.81,74210.3,-0.35,-1.09,-1.09,0,*69
1499212984.01,51921,15.81,74212.0,-0.35,-1.09,-1.13,0,*63
1499212985.26,51922,15.81,74214.0,-0.35,-1.13,-1.21,0,*6A
1499212986.52,51923,15.81,74218.0,-0.35,-1.13,-1.13,0,*6A
1499212987.73,51924,15.81,74218.0,-0.35,-1.25,-1.21,0,*69
1499212988.95,51925,15.81,74214.3,-0.35,-1.21,-1.25,0,*68
1499212990.17,51926,15.81,74214.3,-0.35,-1.21,-1.25,0,*6B
1499212991.43,51927,15.81,74216.0,-0.35,-1.13,-1.13,0,*6E
1499212992.62,51928,15.81,74216.5,-0.37,-1.29,-1.25,0,*6F
1499212993.84,51929,15.81,74216.8,-0.37,-1.29,-1.35,0,*6F
1499212995.05,51930,15.81,74216.8,-0.37,-1.35,-1.29,0,*67
1499212996.27,51931,15.81,74216.3,-0.37,-1.33,-1.35,0,*6D
1499212997.51,51932,15.81,74216.0,-0.37,-1.47,-1.39,0,*61
1499212998.76,51933,15.81,74218.3,-0.37,-1.47,-1.47,0,*69
1499212999.94,51934,15.81,74214.8,-0.37,-1.59,-1.59,0,*6E
1499213001.12,51935,15.81,74216.3,-0.37,-1.63,-1.63,0,*6F
1499213002.32,51936,15.81,74216.0,-0.37,-1.71,-1.71,0,*6C
1499213003.54,51937,15.81,74214.3,-0.39,-1.63,-1.71,0,*60
1499213004.76,51938,15.81,74214.8,-0.39,-1.71,-1.63,0,*6F
1499213005.97,51939,15.81,74216.5,-0.39,-1.51,-1.51,0,*6D
1499213007.21,51940,15.81,74216.0,-0.39,-1.51,-1.47,0,*64
1499213008.42,51941,15.81,74212.8,-0.39,-1.59,-1.51,0,*6A
1499213009.63,51942,15.81,74216.8,-0.43,-1.55,-1.55,0,*6C
1499213010.84,51943,15.81,74214.0,-0.39,-1.59,-1.59,0,*60
1499213012.05,51944,15.81,74216.0,-0.39,-1.59,-1.51,0,*6F
1499213013.29,51945,15.81,74212.0,-0.39,-1.39,-1.51,0,*68
1499213014.53,51946,15.88,74220.0,-0.43,-1.43,-1.33,0,*6F
1499213015.8,51947,15.81,74218.0,-0.43,-1.39,-1.39,0,*69
1499213017.07,51948,15.81,74214.3,-0.43,-1.39,-1.39,0,*66
1499213018.32,51949,15.81,74212.0,-0.39,-1.29,-1.35,0,*67
1499213019.59,51950,15.81,74218.0,-0.43,-1.39,-1.39,0,*6F
1499213020.8,51951,15.81,74212.8,-0.43,-1.51,-1.51,0,*6E
1499213022.0,51952,15.81,74218.3,-0.43,-1.55,-1.55,0,*6D
1499213023.22,51953,15.81,74216.3,-0.43,-1.33,-1.33,0,*6C
1499213024.49,51954,15.81,74214.3,-0.43,-1.39,-1.39,0,*6B
1499213025.76,51955,15.81,74220.8,-0.43,-1.39,-1.43,0,*67
1499213026.97,51956,15.81,74218.8,-0.43,-1.51,-1.51,0,*69
1499213028.17,51957,15.81,74220.8,-0.43,-1.51,-1.51,0,*68
1499213029.39,51958,15.81,74218.3,-0.45,-1.43,-1.55,0,*66
1499213030.63,51959,15.81,74218.0,-0.45,-1.47,-1.47,0,*60
1499213031.85,51960,15.81,74220.3,-0.45,-1.55,-1.47,0,*69
1499213033.07,51961,15.81,74216.8,-0.47,-1.71,-1.71,0,*69
1499213034.26,51962,15.81,74218.0,-0.45,-1.71,-1.79,0,*60
1499213035.48,51963,15.81,74220.5,-0.47,-1.59,-1.71,0,*61
1499213036.66,51964,15.81,74218.3,-0.45,-1.59,-1.59,0,*6E
1499213037.84,51965,15.81,74220.8,-0.45,-1.59,-1.59,0,*6F
1499213039.04,51966,15.81,74220.0,-0.45,-1.71,-1.71,0,*6C
1499213040.25,51967,15.81,74222.3,-0.47,-1.79,-1.79,0,*6F
1499213041.52,51968,15.81,74220.0,-0.47,-1.83,-1.83,0,*60
1499213042.76,51969,15.81,74224.5,-0.45,-1.83,-1.91,0,*60
1499213044.0,51970,15.81,74226.3,-0.45,-1.91,-1.91,0,*6B
1499213045.26,51971,15.81,74222.3,-0.47,-1.83,-1.83,0,*68
1499213046.48,51972,15.81,74222.5,-0.49,-1.75,-1.83,0,*6C
1499213047.73,51973,15.81,74218.0,-0.49,-1.87,-1.87,0,*64
1499213048.96,51974,15.81,74208.5,-0.49,-1.95,-1.95,0,*63
1499213050.22,51975,15.81,74210.5,-0.51,-1.95,-1.95,0,*6B
1499213051.48,51976,15.81,74216.3,-0.51,-1.87,-1.95,0,*6B
1499213052.7,51977,15.81,74214.5,-0.51,-1.75,-1.75,0,*69
1499213053.89,51978,15.81,74212.0,-0.49,-1.75,-1.75,0,*6F
1499213055.16,51979,15.81,74214.3,-0.51,-1.83,-1.83,0,*67
1499213056.43,51980,15.81,74216.3,-0.51,-1.83,-1.83,0,*61
1499213057.69,51981,15.81,74218.0,-0.51,-1.87,-1.87,0,*60
1499213058.91,51982,15.81,74218.5,-0.49,-1.75,-1.87,0,*67
1499213060.18,51983,15.81,74218.5,-0.51,-1.83,-1.83,0,*62
1499213061.42,51984,15.81,74220.5,-0.51,-1.75,-1.83,0,*6C
1499213062.66,51985,15.81,74220.0,-0.51,-1.75,-1.83,0,*6D
1499213063.93,51986,15.81,74222.8,-0.51,-1.87,-1.87,0,*67
1499213065.16,51987,15.81,74224.0,-0.53,-1.91,-1.91,0,*64
1499213066.35,51988,15.81,74220.8,-0.53,-1.67,-1.75,0,*68
1499213067.54,51989,15.81,74220.5,-0.53,-1.63,-1.67,0,*6E
1499213068.73,51990,15.81,74220.8,-0.53,-1.63,-1.55,0,*67
1499213069.91,51991,15.81,74212.3,-0.53,-1.63,-1.63,0,*63
1499213071.1,51992,15.81,74214.5,-0.53,-1.63,-1.63,0,*60
1499213072.33,51993,15.81,74220.8,-0.51,-1.71,-1.71,0,*63
1499213073.51,51994,15.81,74214.3,-0.53,-1.75,-1.79,0,*6A
1499213074.7,51995,15.81,74214.8,-0.53,-1.79,-1.79,0,*67
1499213075.91,51996,15.81,74218.0,-0.55,-1.63,-1.63,0,*62
1499213077.1,51997,15.81,74216.8,-0.53,-1.63,-1.63,0,*65
1499213078.29,51998,15.81,74218.0,-0.53,-1.67,-1.67,0,*6A
1499213079.49,51999,15.81,74218.5,-0.55,-1.51,-1.55,0,*69
1499213080.7,52000,15.81,74220.0,-0.55,-1.55,-1.63,0,*62
1499213081.92,52001,15.81,74220.0,-0.55,-1.67,-1.67,0,*66
1499213083.11,52002,15.81,74216.8,-0.53,-1.75,-1.79,0,*6F
1499213084.32,52003,15.81,74212.3,-0.55,-1.67,-1.67,0,*64
1499213085.54,52004,15.81,74216.0,-0.55,-1.67,-1.67,0,*63
1499213086.73,52005,15.81,74214.8,-0.53,-1.67,-1.67,0,*64
1499213087.92,52006,15.81,74214.3,-0.53,-1.67,-1.67,0,*67
1499213089.13,52007,15.81,74216.5,-0.55,-1.55,-1.63,0,*65
1499213090.34,52008,15.81,74218.0,-0.55,-1.63,-1.63,0,*6F
1499213091.55,52009,15.81,74218.5,-0.55,-1.63,-1.63,0,*6E
1499213092.74,52010,15.81,74218.8,-0.53,-1.63,-1.67,0,*64
1499213093.95,52011,15.81,74218.0,-0.55,-1.55,-1.55,0,*67
1499213095.22,52012,15.81,74220.8,-0.55,-1.39,-1.43,0,*69
1499213096.46,52013,15.81,74218.5,-0.53,-1.39,-1.43,0,*6E
1499213097.7,52014,15.81,74216.5,-0.55,-1.39,-1.33,0,*68
1499213098.97,52015,15.81,74214.8,-0.55,-1.43,-1.43,0,*63
1499213100.24,52016,15.81,74218.8,-0.55,-1.39,-1.43,0,*6D
1499213101.42,52017,15.81,74212.3,-0.53,-1.33,-1.33,0,*67
1499213102.61,52018,15.81,74214.8,-0.53,-1.33,-1.33,0,*68
1499213103.83,52019,15.81,74214.3,-0.53,-1.33,-1.39,0,*63
1499213105.07,52020,15.81,74218.8,-0.53,-1.43,-1.43,0,*63
1499213106.28,52021,15.81,74214.0,-0.55,-1.51,-1.51,0,*64
1499213107.47,52022,15.81,74214.8,-0.53,-1.55,-1.63,0,*64
1499213108.68,52023,15.81,74214.5,-0.55,-1.63,-1.63,0,*66
1499213109.86,52024,15.81,74216.3,-0.53,-1.63,-1.63,0,*67
1499213111.07,52025,15.81,74212.5,-0.55,-1.63,-1.75,0,*67
1499213112.29,52026,15.81,74214.3,-0.55,-1.67,-1.67,0,*63
1499213113.5,52027,15.81,74216.3,-0.55,-1.67,-1.67,0,*62
1499213114.69,52028,15.81,74216.5,-0.53,-1.51,-1.67,0,*6E
1499213115.9,52029,15.81,74218.3,-0.55,-1.55,-1.51,0,*68
1499213117.11,52030,15.81,74216.0,-0.55,-1.55,-1.55,0,*64
1499213118.32,52031,15.81,74216.0,-0.55,-1.63,-1.63,0,*65
1499213119.51,52032,15.81,74222.3,-0.53,-1.55,-1.63,0,*65
1499213120.7,52033,15.81,74226.0,-0.53,-1.63,-1.67,0,*65
1499213121.91,52034,15.81,74216.0,-0.55,-1.67,-1.67,0,*60
1499213123.13,52035,15.81,74216.5,-0.55,-1.63,-1.67,0,*65
1499213124.34,52036,15.81,74220.8,-0.55,-1.63,-1.63,0,*62
1499213125.55,52037,15.81,74222.0,-0.55,-1.63,-1.63,0,*63
1499213126.76,52038,15.81,74216.5,-0.55,-1.55,-1.55,0,*6C
1499213127.99,52039,15.81,74214.5,-0.55,-1.51,-1.43,0,*6E
1499213129.22,52040,15.81,74212.8,-0.55,-1.51,-1.43,0,*60
1499213130.41,52041,15.81,74214.0,-0.53,-1.51,-1.55,0,*60
1499213131.62,52042,15.81,74214.8,-0.55,-1.63,-1.63,0,*61
1499213132.83,52043,15.81,74214.0,-0.55,-1.63,-1.67,0,*64
1499213134.04,52044,15.81,74212.8,-0.55,-1.67,-1.67,0,*67
1499213135.24,52045,15.81,74208.8,-0.53,-1.67,-1.67,0,*60
1499213136.45,52046,15.81,74208.5,-0.55,-1.67,-1.63,0,*61
1499213137.66,52047,15.81,74210.5,-0.55,-1.67,-1.67,0,*64
1499213138.88,52048,15.81,74208.0,-0.55,-1.75,-1.67,0,*68
1499213140.09,52049,15.81,74206.5,-0.55,-1.67,-1.75,0,*69
1499213141.3,52050,15.81,74210.5,-0.55,-1.75,-1.75,0,*62
1499213142.49,52051,15.81,74212.5,-0.57,-1.79,-1.79,0,*61
1499213143.73,52052,15.81,74214.0,-0.57,-1.91,-2.03,0,*6A
1499213144.96,52053,15.81,74214.3,-0.57,-1.91,-1.91,0,*63
1499213146.2,52054,15.81,74218.0,-0.57,-1.91,-1.83,0,*67
1499213147.41,52055,15.81,74212.0,-0.55,-1.79,-1.79,0,*67
1499213148.68,52056,15.81,74218.3,-0.59,-1.91,-1.91,0,*68
1499213149.91,52057,15.81,74216.8,-0.57,-1.91,-1.95,0,*63
1499213151.17,52058,15.81,74216.0,-0.59,-1.95,-1.95,0,*66
1499213152.43,52059,15.81,74218.3,-0.59,-1.95,-1.95,0,*67
1499213153.7,52060,15.81,74216.5,-0.59,-2.03,-2.03,0,*6D
1499213154.97,52061,15.81,74216.8,-0.59,-2.03,-2.03,0,*6C
1499213156.23,52062,15.81,74218.3,-0.59,-1.95,-1.95,0,*6F
1499213157.51,52063,15.81,74218.3,-0.59,-1.83,-1.83,0,*6E
1499213158.78,52064,15.81,74220.5,-0.59,-1.83,-1.83,0,*69
1499213160.05,52065,15.81,74218.8,-0.59,-1.83,-1.91,0,*6B
1499213161.28,52066,15.81,74220.8,-0.61,-1.95,-1.95,0,*60
1499213162.52,52067,15.81,74220.3,-0.61,-1.95,-1.99,0,*6D
1499213163.76,52068,15.81,74216.5,-0.61,-1.95,-1.99,0,*62
1499213165.03,52069,15.81,74220.5,-0.63,-1.99,-2.07,0,*69
1499213166.28,52070,15.81,74216.0,-0.61,-1.99,-2.07,0,*63
1499213167.5,52071,15.81,74216.0,-0.61,-2.11,-2.19,0,*6E
1499213168.72,52072,15.81,74214.8,-0.63,-2.23,-2.23,0,*67
1499213169.93,52073,15.81,74212.8,-0.63,-2.19,-2.23,0,*6F
1499213171.14,52074,15.81,74214.0,-0.63,-2.19,-2.27,0,*6C
1499213172.36,52075,15.81,74214.8,-0.63,-2.19,-2.23,0,*69
1499213173.63,52076,15.81,74208.3,-0.63,-2.11,-2.11,0,*63
1499213174.87,52077,15.81,74212.0,-0.67,-2.11,-2.15,0,*62
1499213176.12,52078,15.81,74212.5,-0.67,-2.03,-2.15,0,*6E
1499213177.39,52079,15.81,74210.3,-0.67,-2.03,-2.11,0,*6B
1499213178.66,52080,15.81,74210.5,-0.67,-2.11,-2.11,0,*6E
1499213179.9,52081,15.81,74206.3,-0.69,-2.03,-2.07,0,*65
1499213181.12,52082,15.81,74204.5,-0.69,-2.07,-2.15,0,*61
1499213182.31,52083,15.81,74204.5,-0.69,-2.15,-2.15,0,*63
1499213183.58,52084,15.81,74206.8,-0.67,-2.11,-2.11,0,*6A
1499213184.76,52085,15.81,74204.3,-0.69,-2.15,-2.15,0,*65
1499213185.95,52086,15.81,74208.3,-0.69,-2.15,-2.15,0,*66
1499213187.14,52087,15.81,74210.3,-0.69,-2.15,-2.15,0,*67
1499213188.32,52088,15.81,74208.5,-0.69,-2.15,-2.15,0,*68
1499213189.54,52089,15.81,74214.5,-0.69,-2.15,-2.07,0,*6A
1499213190.73,52090,15.81,74218.5,-0.69,-2.15,-2.15,0,*61
1499213191.97,52091,15.81,74214.0,-0.69,-2.07,-2.07,0,*60
1499213193.24,52092,15.81,74214.5,-0.71,-2.03,-2.07,0,*6E
1499213194.51,52093,15.81,74212.5,-0.71,-2.03,-2.03,0,*6B
1499213195.77,52094,15.81,74206.8,-0.71,-2.03,-2.07,0,*68
1499213197.04,52095,15.81,74208.3,-0.71,-2.03,-2.03,0,*6D
1499213198.31,52096,15.81,74214.3,-0.71,-2.03,-2.03,0,*6E
1499213199.57,52097,15.81,74214.3,-0.71,-2.03,-2.07,0,*6B
1499213200.81,52098,15.81,74212.0,-0.71,-2.03,-2.15,0,*67
1499213202.02,52099,15.81,74218.8,-0.71,-2.15,-2.15,0,*61
1499213203.29,52100,15.81,74218.3,-0.71,-1.95,-2.07,0,*68
1499213204.56,52101,15.81,74216.8,-0.71,-2.03,-2.07,0,*65
1499213205.8,52102,15.81,74218.3,-0.73,-1.99,-2.07,0,*64
1499213207.04,52103,15.81,74214.5,-0.73,-2.07,-2.07,0,*61
1499213208.3,52104,15.81,74214.5,-0.71,-2.03,-1.95,0,*68
1499213209.57,52105,15.81,74218.5,-0.71,-2.03,-2.07,0,*61
1499213210.84,52106,15.81,74216.0,-0.71,-2.07,-2.07,0,*66
1499213212.11,52107,15.81,74216.3,-0.71,-2.03,-2.07,0,*63
1499213213.38,52108,15.81,74216.5,-0.71,-2.03,-2.07,0,*6C
1499213214.62,52109,15.81,74218.3,-0.73,-2.11,-2.11,0,*6B
1499213215.86,52110,15.81,74218.3,-0.73,-1.99,-1.99,0,*63
1499213217.13,52111,15.81,74216.0,-0.71,-1.83,-1.83,0,*60
1499213218.34,52112,15.81,74214.0,-0.73,-1.75,-1.83,0,*68
1499213219.58,52113,15.81,74212.5,-0.73,-1.87,-1.83,0,*64
1499213220.79,52114,15.81,74214.0,-0.71,-1.79,-1.79,0,*65
1499213221.98,52115,15.81,74212.8,-0.73,-1.71,-1.79,0,*6E
1499213223.2,52116,15.81,74214.5,-0.71,-1.79,-1.79,0,*67
1499213224.41,52117,15.81,74218.3,-0.71,-1.79,-1.79,0,*66
1499213225.67,52118,15.81,74218.3,-0.71,-1.95,-2.03,0,*65
1499213226.94,52119,15.81,74218.5,-0.71,-2.03,-2.03,0,*68
1499213228.15,52120,15.81,74218.3,-0.71,-2.31,-2.43,0,*67
1499213229.38,52121,15.81,74216.0,-0.71,-2.43,-2.55,0,*64
1499213230.57,52122,15.81,74216.5,-0.73,-2.35,-2.43,0,*63
1499213231.75,52123,15.81,74212.5,-0.73,-2.23,-2.23,0,*63
1499213232.94,52124,15.81,74212.3,-0.73,-2.23,-2.23,0,*64
1499213234.15,52125,15.81,74212.5,-0.73,-2.11,-2.19,0,*6D
1499213235.42,52126,15.81,74210.0,-0.71,-2.07,-2.07,0,*64
1499213236.68,52127,15.81,74212.3,-0.71,-2.03,-1.95,0,*69
1499213237.92,52128,15.81,74212.5,-0.73,-1.95,-1.99,0,*64
1499213239.18,52129,15.81,74212.3,-0.71,-1.91,-1.91,0,*6B
1499213240.44,52130,15.81,74216.0,-0.71,-1.95,-2.03,0,*6F
1499213241.68,52131,15.81,74214.8,-0.51,-2.27,-2.59,0,*69
1499213242.92,52132,15.81,74214.8,-0.37,-2.59,-2.51,0,*6B
1499213244.14,52133,15.81,74214.5,-0.31,-2.19,-2.39,0,*66
1499213245.35,52134,15.81,74210.8,-0.21,-1.95,-2.31,0,*6F
1499213246.57,52135,15.81,74210.8,-0.13,-1.71,-2.27,0,*62
1499213247.78,52136,15.81,74214.5,-0.07,-1.55,-2.03,0,*54
1499213248.98,52137,15.81,74212.3,-0.03,-1.51,-1.91,0,*5D
1499213250.24,52138,15.81,74214.8,-0.01,-1.43,-1.83,0,*50
1499213251.42,52139,15.81,74212.5,0.05,-1.29,-1.67,0,*7E
1499213252.6,52140,15.81,74214.3,0.05,-1.29,-1.55,0,*71
1499213253.78,52141,15.81,74214.3,0.09,-1.25,-1.51,0,*74
1499213254.96,52142,15.81,74212.8,0.09,-1.29,-1.63,0,*7A
1499213256.13,52143,15.81,74214.3,0.09,-1.29,-1.51,0,*7A
1499213257.37,52144,15.81,74216.8,0.13,-1.25,-1.47,0,*4D
1499213258.61,52145,15.81,74210.3,0.13,-1.21,-1.35,0,*4D
1499213259.86,52146,15.81,74216.8,0.13,-1.21,-1.35,0,*4E
1499213261.12,52147,15.81,74216.3,0.13,-1.13,-1.43,0,*4F
1499213262.36,52148,15.81,74218.0,0.13,-1.21,-1.43,0,*41
1499213263.58,52149,15.81,74220.3,0.15,-1.17,-1.39,0,*4E
1499213264.82,52150,15.81,74218.8,0.17,-1.29,-1.47,0,*40
1499213266.0,52151,15.81,74218.3,0.15,-1.33,-1.59,0,*47
1499213267.24,52152,15.81,74220.0,0.17,-1.43,-1.67,0,*4C
1499213268.47,52153,15.81,74218.8,0.17,-1.39,-1.59,0,*4D
1499213269.69,52154,15.81,74214.0,0.15,-1.33,-1.43,0,*49
1499213270.9,52155,15.81,74218.3,0.15,-1.33,-1.43,0,*48
1499213272.14,52156,15.81,74214.8,0.17,-1.29,-1.39,0,*4F
1499213273.37,52157,15.81,74216.8,0.17,-1.29,-1.43,0,*43
1499213274.63,52158,15.81,74214.0,0.17,-1.39,-1.47,0,*49
1499213275.87,52159,15.81,74218.3,0.17,-1.33,-1.47,0,*42
1499213277.11,52160,15.81,74218.0,0.17,-1.33,-1.43,0,*4C
1499213278.34,52161,15.81,74216.5,0.17,-1.33,-1.43,0,*4D
1499213279.58,52162,15.81,74212.5,0.17,-1.29,-1.39,0,*48
1499213280.81,52163,15.81,74214.3,0.17,-1.29,-1.39,0,*49
1499213282.05,52164,15.81,74218.8,0.17,-1.29,-1.39,0,*4E
1499213283.28,52165,15.81,74216.3,0.17,-1.29,-1.39,0,*4F
1499213284.52,52166,15.81,74216.0,0.17,-1.33,-1.43,0,*4A
1499213285.76,52167,15.81,74216.0,0.17,-1.33,-1.39,0,*46
1499213286.96,52168,15.81,74212.3,0.17,-1.33,-1.33,0,*43
1499213288.17,52169,15.81,74218.5,0.17,-1.33,-1.33,0,*42
1499213289.4,52170,15.81,74214.0,0.17,-1.29,-1.39,0,*4B
1499213290.61,52171,15.81,74214.3,0.17,-1.29,-1.33,0,*40
1499213291.84,52172,15.81,74216.0,0.17,-1.29,-1.39,0,*49
1499213293.03,52173,15.81,74218.0,0.19,-1.25,-1.29,0,*4B
1499213294.26,52174,15.81,74218.0,0.19,-1.35,-1.43,0,*41
1499213295.48,52175,15.81,74214.5,0.19,-1.29,-1.39,0,*40
1499213296.69,52176,15.81,74214.0,0.19,-1.29,-1.39,0,*43
1499213297.93,52177,15.81,74214.5,0.17,-1.33,-1.39,0,*47
1499213299.12,52178,15.81,74218.3,0.19,-1.29,-1.29,0,*4C
1499213300.31,52179,15.81,74218.0,0.19,-1.17,-1.29,0,*40
1499213301.49,52180,15.81,74214.5,0.19,-1.25,-1.29,0,*47
1499213302.68,52181,15.81,74216.0,0.19,-1.25,-1.29,0,*46
1499213303.88,52182,15.81,74210.8,0.17,-1.29,-1.29,0,*47
1499213305.1,52183,15.81,74210.3,0.19,-1.13,-1.17,0,*4C
1499213306.31,52184,15.81,74208.5,0.19,-1.05,-1.17,0,*4C
1499213307.54,52185,15.81,74208.3,0.19,-1.05,-1.13,0,*49
1499213308.78,52186,15.81,74206.0,0.19,-1.01,-1.05,0,*49